Showing default

TIMATION 2, 4257

Orbit data source: Space-Track

TIMATION 2, 4257 is a payload satellite owned by NRL (US) in LEO that was launched on Tue, 30 Sep 1969 UTC via a THORAD SLV-2G AGENA D launch vehicle from the Air Force Western Test Range (AFWTR). Payload-class satellites include a variety of spacecraft equipped with specific instruments for various scientific and technological missions. These include communications satellites like Starlink; space stations such as the ISS; scientific satellites like the Hubble; Earth observation satellites from companies like Planet Labs, Umbra, and HawkEye 360; GPS; miniature CubeSats for education and research; and military/defense satellites.

Loading next visibility...
Identifier
4257, 1969-082C
Orbit
LEO
Country
Flag of USUS
Related business
Manufacturer
NRL
Mission
Spacecraft
Bus & Motor
TIMATION, Unknown motor
Mass
62 kg wet, 62 kg dry
Launch date (UTC)
1969-09-30 (57 years ago)
Launch vehicle
THORAD SLV-2G AGENA D
Launch site
Air Force Western Test Range (AFWTR)
Object type
Payload
Rocket body
Debris
Shape & HBR
Unknown
Radar Cross Section
Medium (>0.1 m² and <1 m²)

Expand to show TLE details & history
Last TLE update: 20 hours ago

TLE from 20 hours ago
0 TIMATION 2
1 04257U 69082C   26173.52053580 -.00000001  00000-0  37795-4 0  9997
2 04257  70.0152  80.1520 0018210 119.0746  53.8246 13.96383785887397
Epoch: 2026-06-22T12:29Z
TLE epoch observation values (Epoch: 2026-06-22T12:29:34.293Z)
Latitude
6.4479°
Longitude
159.71069°
Altitude
900.238 km
Speed
7.407 km/s
True Right ascension
17h 11m 14s
True Declination
6° 24' 37"
Sunlit
Object was in full shadow at epoch
Visualization orbit readout
Latitude
Unknown
Longitude
Unknown
Altitude
Unknown
Speed
Unknown
Apparent Right ascension
Unknown
Apparent Declination
Unknown
Sunlit
N/A
Visualization observer readout
Local Sidereal Time
19:56:37
Azimuth
Unknown
Elevation
Unknown
Doppler factor
Unknown
Orbital elements
Apogee altitude
917.647 km
Perigee altitude
891.124 km
Semi-major axis
7,282.523 km
Eccentricity
0.00182
Inclination
70.0152°
RAAN
80.152°
Arg. of periapsis
119.0746°
True anomaly
53.99327°
Mean anomaly
53.8246°
Eccentric anomaly
53.90891°
Mean motion
3.49237 °/min
Orbital period
103.08 mins
BSTAR
0.000037795

Documentation

Showing up to 5 results
|